{"data":{"norad_id":53805,"epoch":"2026-09-20T05:10:12.608544Z","epoch_age_seconds":108898,"freshness":"FRESH","line1":"1 53805U 22111AJ  26263.21542371  .00002986  00000+0  10793-3 0  9999","line2":"2 53805  53.1585  83.2759 0001317  90.0774 270.0378 15.31710377223563","mean_motion":15.31710377,"eccentricity":0.0001317,"inclination_deg":53.1585,"raan_deg":83.2759,"arg_perigee_deg":90.0774,"mean_anomaly_deg":270.0378,"bstar":0.00010793,"rev_number":22356,"period_min":94.012551042474,"perigee_km":469.80706907688,"apogee_km":471.61105512964,"semimajor_km":6848.8460621033,"source":"CELESTRAK","updated_at":"2026-09-21T09:00:32.997117Z"}}